User: anonymous   Login
Location: Radomski Observatory
(40.2854°N, 79.5145°W)
Time: 05:23:28
(UTC-04:00)
Language:

Uosat F - Orbit

View from above orbital plane
View from above orbital plane
View from above satellite
View from above satellite

Ground track
Ground track

The orbit data is extracted from the following two-line orbital elements,

1 21575U 91050B   15088.48841609  .00000393  00000-0  13772-3 0  9995
2 21575 098.7340 074.9387 0007108 184.0598 288.0212 14.40589534244558
Epoch (UTC): 29 March 2015 11:43:19
Eccentricity: 0.0007108
inclination: 98.7340°
perigee height: 751 km
apogee height: 761 km
right ascension of ascending node: 74.9387°
argument of perigee: 184.0598°
revolutions per day: 14.40589534
mean anomaly at epoch: 288.0212°
orbit number at epoch: 24455

The dashed part of the orbit path shows where the satellite is in the earth's shadow,  

DLR